Regional Weather Roundup
Issued by NWS

Home | Current Version | Previous Version | Graphics & Text | Print | Product List | Glossary On
Versions: 1 2 3 4 5 6 7 8 9 10 11 12 13 14 15 16 17 18 19 20 21 22 23 24 25 26 27 28 29 30 31 32 33 34 35 36 37 38 39 40 41 42 43 44 45 46 47 48 49 50
000
ASUS43 KLOT 190006
RWRIL

ILLINOIS REGIONAL WEATHER ROUNDUP
NATIONAL WEATHER SERVICE CHICAGO/ROMEOVILLE IL
600 PM CST THU DEC 18 2014

NOTE: "FAIR" INDICATES FEW OR NO CLOUDS BELOW 12,000 FEET WITH NO
SIGNIFICANT WEATHER AND/OR OBSTRUCTIONS TO VISIBILITY.

* THESE STATIONS ARE NOT UNDER NWS QUALITY CONTROL. THEY ALSO MAY NOT
  REPORT WEATHER SUCH AS PRECIPITATION OR FOG.

ILZ001-002-007-009-015-016-024-190100-
NORTHWEST ILLINOIS

CITY           SKY/WX    TMP DP  RH WIND       PRES   REMARKS
MOLINE         CLOUDY    26  17  68 N5        30.28R WCI  20
6HR MIN TEMP:  26; 6HR MAX TEMP:  30;

STERLING*      PTCLDY    23  16  74 CALM      30.27S
SAVANNA*       PTCLDY    22  16  78 CALM      30.27S
$$

ILZ003-004-008-010-011-017-018-190100-
NORTH CENTRAL ILLINOIS

CITY           SKY/WX    TMP DP  RH WIND       PRES   REMARKS
ROCKFORD       CLOUDY    26  17  68 NW3       30.27S
6HR MIN TEMP:  26; 6HR MAX TEMP:  28;

FREEPORT*      CLOUDY    25  18  74 CALM      30.27S
ROCHELLE*      CLOUDY    25  18  76 N3        30.26S
DE KALB*       CLOUDY    24  18  77 NW3       30.24S
PERU*          CLOUDY    26  20  77 N6        30.27S WCI  20
$$

ILZ005-006-012>014-019>023-190100-
NORTHEAST ILLINOIS

CITY           SKY/WX    TMP DP  RH WIND       PRES   REMARKS
CHICAGO-OHARE  CLOUDY    28  19  69 N7        30.24R WCI  21
6HR MIN TEMP:  26; 6HR MAX TEMP:  28;

CHICAGO-MIDWAY CLOUDY    29  19  66 SW5       30.25R WCI  24
6HR MIN TEMP:  27; 6HR MAX TEMP:  30;

AURORA         CLOUDY    27  19  72 NW5       30.26R WCI  22
6HR MIN TEMP:  25; 6HR MAX TEMP:  28;

LANSING*       CLOUDY    25  20  79 CALM      30.25R
JOLIET*        CLOUDY    25  18  75 W5        30.26S WCI  19
WAUKEGAN       CLOUDY    27  22  81 NW5       30.24R WCI  22
6HR MIN TEMP:  26; 6HR MAX TEMP:  28;

DUPAGE AIRPORT CLOUDY    27  19  72 W8        30.24R WCI  19
6HR MIN TEMP:  26; 6HR MAX TEMP:  29;

KANKAKEE*      CLOUDY    26  21  80 W5        30.27R WCI  21
WHEELING       CLOUDY    28  19  69 N6        30.26R WCI  22
6HR MIN TEMP:  25; 6HR MAX TEMP:  28;

MORRIS*        CLOUDY    25  22  87 W6        30.26S WCI  18
ROMEOVILLE*    CLOUDY    25  19  78 W6        30.25S WCI  18
NORTHERLY ISL    N/A     28  20  71 E1          N/A
$$

LMZ740>746-190100-
SOUTHERN LAKE MICHIGAN

STATION/POSITION SKY/WX   TEMP    WIND        PRES    VSBY  WAVE
                          AIR SEA DIR/SP/G                  HT/PER
                          (F)     (DEG/KT/KT) (MB)    (MI)  (FT/S)
WAUKEGAN HARBOR            28     330/  5/ 10   N/A
HARRISON CRIB              28     340/  5/  7   N/A
BURNHAM HARBOR             29      20/  1/  4   N/A
CALUMET HARBOR             27     220/  2/  3 1023.0R
$$

ILZ025>027-034>036-040-047-049-050-058-095>099-190100-
WEST-CENTRAL ILLINOIS

CITY           SKY/WX    TMP DP  RH WIND       PRES   REMARKS
QUINCY         CLOUDY    28  23  81 NE7       30.26R WCI  21
GALESBURG*     CLOUDY    27  21  78 CALM      30.26S
MACOMB*        CLOUDY    29  23  76 N5        30.29R WCI  24
JACKSONVILLE*  CLOUDY    31  27  83 N3        30.27R
PITTSFIELD*    CLOUDY    30  26  86 CALM      30.27S
$$

ILZ028>032-037-038-041>044-048-051>054-059>061-190100-
CENTRAL ILLINOIS

CITY           SKY/WX    TMP DP  RH WIND       PRES   REMARKS
PONTIAC        PTCLDY    27  22  83 CALM      30.27S
BLOOMINGTON    CLOUDY    27  21  77 N6        30.26R WCI  21
DECATUR        CLOUDY    29  24  82 N3        30.26S
PEORIA         MOCLDY    27  18  69 CALM      30.27R
6HR MIN TEMP:  27; 6HR MAX TEMP:  30;

LACON*         PTCLDY    25  19  80 CALM      30.27R
LINCOLN*       MOCLDY    29  23  80 CALM      30.28R
SPRINGFIELD    CLOUDY    30  24  78 N5        30.27R WCI  25
6HR MIN TEMP:  29; 6HR MAX TEMP:  32;

TAYLORVILLE    CLOUDY    30  25  80 CALM      30.27R
$$

ILZ033-039-045-046-055>057-062-063-190100-
EAST-CENTRAL ILLINOIS

CITY           SKY/WX    TMP DP  RH WIND       PRES   REMARKS
CHAMPAIGN      CLOUDY    28  22  78 NW3       30.25S
DANVILLE*      CLOUDY    28  23  84 W3        30.23S
RANTOUL*       CLOUDY    30  24  78 N6        30.26R WCI  24
MATTOON        CLOUDY    28  22  78 N6        30.24S WCI  22
PARIS*         CLOUDY    29  25  84 CALM      30.26S
$$

ILZ079-100>102-190100-
SOUTHWEST ILLINOIS

CITY           SKY/WX    TMP DP  RH WIND       PRES   REMARKS
ALTON          CLOUDY    32  27  80 NE7       30.26R WCI  26
BELLEVILLE     CLOUDY    34  28  81 NE3       30.25R
CAHOKIA*       CLOUDY    35  30  82 CALM      30.25S
SPARTA*        CLOUDY    33  31  91 CALM      30.26R
$$

ILZ064>066-069>071-074>076-080>082-084>086-088>090-092>094-190100-
SOUTH-CENTRAL ILLINOIS

CITY           SKY/WX    TMP DP  RH WIND       PRES   REMARKS
CARBONDALE     CLOUDY    34  29  82 CALM      30.24S
6HR MIN TEMP:  32; 6HR MAX TEMP:  35;

CAIRO*         CLOUDY    38  34  85 NE3       30.25R
EFFINGHAM*     CLOUDY    31  21  66 CALM      30.27S
MARION         CLOUDY    36  30  80 NE6       30.25R WCI  31
MT. VERNON     CLOUDY    34  23  64 N6        30.26R WCI  29
CENTRALIA*     CLOUDY    32  24  72 NE3       30.25S
SALEM*         CLOUDY    33  26  75 N5        30.26R WCI  29
METROPOLIS*    CLOUDY    36  34  93 CALM      30.24R
$$

ILZ067-068-072-073-078-083-087-091-190100-
SOUTHEAST ILLINOIS

CITY           SKY/WX    TMP DP  RH WIND       PRES   REMARKS
LAWRENCEVILLE  CLOUDY    31  24  75 NE6       30.26R WCI  25
FLORA*         MOCLDY    31  25  78 N5        30.27R WCI  26
FAIRFIELD*     CLOUDY    32  26  77 N3        30.25R
HARRISBURG*    CLOUDY    33  29  82 CALM      30.26R
ROBINSON*      MOCLDY    30  24  79 N3        30.27S
CARMI*         CLOUDY    34  28  79 CALM      30.24S
$$

ABBREVIATIONS USED IN REMARKS
   TC - TEMPERATURE IN CELSIUS
  WCI - WIND CHILL INDEX
   HX - HEAT INDEX
  VSB - VISIBILITY
$$




USA.gov is the U.S. government's official web portal to all federal, state and local government web resources and services.